Weather History for Monett, MO

Change the Weather History Date:

Tuesday, June 10, 2014

  Actual Average (KJLN) Record (KJLN)
Temperature  
Mean Temperature 18 °C 23 °C  
Max Temperature 22 °C 29 °C 37 °C (1953)
Min Temperature 15 °C 18 °C 6 °C (1988)
Degree Days  
Heating Degree Days 0 0  
Month to date heating degree days 2  
Since 1 June heating degree days 2  
Since 1 July heating degree days 4071  
Cooling Degree Days 0 9  
Month to date cooling degree days 80  
Year to date cooling degree days 260  
Since 1 June cooling degree days 80  
Growing Degree Days 15 (Base 50)    
Moisture  
Dew Point 16 °C    
Average Humidity 94    
Maximum Humidity 100    
Minimum Humidity 73    
Precipitation  
Precipitation 0.25 mm 4.83 mm 9.80 mm (2007)
Month to date precipitation 2.03  
Year to date precipitation 19.98  
Sea Level Pressure  
Sea Level Pressure 1007 hPa    
Wind  
Wind Speed 8 km/h (NW)    
Max Wind Speed 21 km/h    
Max Gust Speed 27 km/h    
Visibility 15 kilometers    
Events Rain    
T = Trace of Precipitation, MM = Missing Value Source: NWS Daily Summary

Daily Weather History Graph

Daily Weather History Graph

Search for Another Location

Airport:

Trip Planner

Search our weather history database for the weather conditions in past years. The results will help you decide how hot, cold, wet, or windy it might be!

Date:

Astronomy

Jun. 10, 2014 Rise Set
Actual Time 5:56 AM CDT 8:35 PM CDT
Civil Twilight 5:25 AM CDT 9:05 PM CDT
Nautical Twilight 4:47 AM CDT 9:43 PM CDT
Astronomical Twilight 4:04 AM CDT 10:26 PM CDT
Moon 6:04 PM CDT (6/10) 3:58 AM CDT (6/10)
Length of Visible Light 15h 40m
Length of Day
14h 38m
Waxing Gibbous, 92% of the Moon is Illuminated
Jun 10
Waxing Gibbous
Jun 12
Full
Jun 19
Last Quarter
Jun 27
New
Jul 5
First Quarter

Hourly Weather History & Observations

Time (CDT) Temp. Dew Point Humidity Pressure Visibility Wind Dir Wind Speed Gust Speed Precip Events Conditions
12:15 AM 16.0 °C 16.0 °C 100% 1005.6 hPa 16.1 km Calm Calm - N/A   Overcast
12:35 AM 16.0 °C 16.0 °C 100% 1005.6 hPa 16.1 km South 5.6 km/h / 1.5 m/s - N/A   Overcast
12:55 AM 16.0 °C 16.0 °C 100% 1005.6 hPa 16.1 km SE 5.6 km/h / 1.5 m/s - 0.3 mm   Overcast
1:15 AM 16.0 °C 16.0 °C 100% 1005.6 hPa 16.1 km ESE 7.4 km/h / 2.1 m/s - N/A   Overcast
1:35 AM 16.0 °C 16.0 °C 100% 1005.6 hPa 16.1 km SSE 7.4 km/h / 2.1 m/s - N/A   Overcast
1:55 AM 16.0 °C 16.0 °C 100% 1005.6 hPa 16.1 km SSE 5.6 km/h / 1.5 m/s - N/A   Overcast
2:15 AM 16.0 °C 16.0 °C 100% 1005.3 hPa 16.1 km SE 9.3 km/h / 2.6 m/s - N/A   Overcast
2:35 AM 16.0 °C 16.0 °C 100% 1005.3 hPa 16.1 km SSE 5.6 km/h / 1.5 m/s - N/A   Overcast
2:55 AM 16.0 °C 16.0 °C 100% 1005.0 hPa 16.1 km South 7.4 km/h / 2.1 m/s - N/A   Scattered Clouds
3:15 AM 16.0 °C 16.0 °C 100% 1005.0 hPa 16.1 km SSE 9.3 km/h / 2.6 m/s - N/A   Scattered Clouds
3:35 AM 16.0 °C 16.0 °C 100% 1004.6 hPa 16.1 km SSE 7.4 km/h / 2.1 m/s - N/A   Mostly Cloudy
4:15 AM 16.0 °C 16.0 °C 100% 1004.6 hPa 16.1 km SSW 5.6 km/h / 1.5 m/s - N/A   Overcast
4:35 AM 16.0 °C 16.0 °C 100% 1005.0 hPa 16.1 km Calm Calm - N/A   Mostly Cloudy
4:55 AM 16.0 °C 16.0 °C 100% 1005.3 hPa 16.1 km Calm Calm - N/A   Scattered Clouds
5:15 AM 15.0 °C 15.0 °C 100% 1005.3 hPa 11.3 km NNE 5.6 km/h / 1.5 m/s - N/A   Clear
5:35 AM 15.0 °C 15.0 °C 100% 1005.3 hPa 2.0 km North 5.6 km/h / 1.5 m/s - N/A   Overcast
5:55 AM 15.0 °C 15.0 °C 100% 1005.6 hPa 6.4 km North 5.6 km/h / 1.5 m/s - N/A   Overcast
6:15 AM 15.0 °C 15.0 °C 100% 1006.0 hPa 6.4 km Calm Calm - N/A   Mostly Cloudy
6:35 AM 15.0 °C 15.0 °C 100% 1005.6 hPa 8.0 km Calm Calm - N/A   Scattered Clouds
7:15 AM 16.0 °C 16.0 °C 100% 1006.7 hPa 16.1 km NW 9.3 km/h / 2.6 m/s - N/A   Mostly Cloudy
7:35 AM 16.0 °C 16.0 °C 100% 1006.7 hPa 6.4 km NW 9.3 km/h / 2.6 m/s - N/A   Overcast
7:55 AM 16.0 °C 16.0 °C 100% 1006.7 hPa 11.3 km NNW 9.3 km/h / 2.6 m/s - N/A   Overcast
8:15 AM 16.0 °C 16.0 °C 100% 1006.3 hPa 8.0 km North 7.4 km/h / 2.1 m/s - N/A   Overcast
8:35 AM 17.0 °C 16.0 °C 94% 1006.7 hPa 16.1 km NW 9.3 km/h / 2.6 m/s - N/A   Overcast
8:55 AM 17.0 °C 17.0 °C 100% 1006.7 hPa 16.1 km NW 7.4 km/h / 2.1 m/s - N/A   Overcast
9:15 AM 18.0 °C 17.0 °C 94% 1006.7 hPa 16.1 km NW 7.4 km/h / 2.1 m/s - N/A   Overcast
9:35 AM 18.0 °C 17.0 °C 94% 1007.0 hPa 16.1 km NNW 13.0 km/h / 3.6 m/s - N/A   Overcast
9:55 AM 18.0 °C 17.0 °C 94% 1007.0 hPa 16.1 km NNW 9.3 km/h / 2.6 m/s - N/A   Overcast
10:15 AM 18.0 °C 17.0 °C 94% 1007.0 hPa 16.1 km Calm Calm - N/A   Overcast
10:35 AM 18.0 °C 17.0 °C 94% 1007.3 hPa 16.1 km NW 9.3 km/h / 2.6 m/s - N/A   Overcast
10:55 AM 17.0 °C 17.0 °C 100% 1007.7 hPa 16.1 km NNW 13.0 km/h / 3.6 m/s - N/A   Overcast
11:15 AM 18.0 °C 17.0 °C 94% 1007.7 hPa 16.1 km NNE 7.4 km/h / 2.1 m/s - N/A   Overcast
11:35 AM 18.0 °C 17.0 °C 94% 1007.3 hPa 16.1 km NE 9.3 km/h / 2.6 m/s - N/A   Overcast
11:55 AM 19.0 °C 17.0 °C 88% 1007.3 hPa 16.1 km ENE 11.1 km/h / 3.1 m/s - N/A   Overcast
12:15 PM 20.0 °C 16.0 °C 78% 1007.0 hPa 16.1 km Calm Calm - N/A   Mostly Cloudy
12:35 PM 21.0 °C 17.0 °C 78% 1007.0 hPa 16.1 km Calm Calm - N/A   Scattered Clouds
12:55 PM 21.0 °C 17.0 °C 78% 1006.7 hPa 16.1 km Calm Calm - N/A   Scattered Clouds
1:15 PM 22.0 °C 17.0 °C 73% 1006.7 hPa 16.1 km WNW 7.4 km/h / 2.1 m/s - N/A   Mostly Cloudy
1:35 PM 19.0 °C 17.0 °C 88% 1006.7 hPa 16.1 km WNW 20.4 km/h / 5.7 m/s 27.8 km/h / 7.7 m/s N/A Rain Rain
2:15 PM 18.0 °C 18.0 °C 100% 1007.0 hPa 11.3 km NNW 13.0 km/h / 3.6 m/s - N/A   Drizzle
2:55 PM 19.0 °C 17.0 °C 88% 1007.0 hPa 8.0 km NW 20.4 km/h / 5.7 m/s - N/A   Light Drizzle
3:35 PM 20.0 °C 17.0 °C 83% 1007.0 hPa 16.1 km WNW 16.7 km/h / 4.6 m/s - N/A   Overcast
3:55 PM 21.0 °C 17.0 °C 78% 1007.0 hPa 16.1 km WNW 16.7 km/h / 4.6 m/s - N/A   Overcast
4:15 PM 21.0 °C 17.0 °C 78% 1007.3 hPa 16.1 km WNW 16.7 km/h / 4.6 m/s - N/A   Mostly Cloudy
4:55 PM 20.0 °C 17.0 °C 83% 1007.3 hPa 16.1 km West 14.8 km/h / 4.1 m/s - N/A   Overcast
5:15 PM 21.0 °C 17.0 °C 78% 1007.3 hPa 16.1 km West 18.5 km/h / 5.1 m/s - N/A   Overcast
5:35 PM 20.0 °C 16.0 °C 78% 1007.3 hPa 16.1 km NW 14.8 km/h / 4.1 m/s - N/A   Overcast
5:55 PM 20.0 °C 17.0 °C 83% 1007.3 hPa 16.1 km WNW 18.5 km/h / 5.1 m/s - N/A   Overcast
6:15 PM 20.0 °C 17.0 °C 83% 1007.3 hPa 16.1 km WNW 20.4 km/h / 5.7 m/s - N/A   Overcast
6:55 PM 18.0 °C 17.0 °C 94% 1007.7 hPa 16.1 km WNW 18.5 km/h / 5.1 m/s 25.9 km/h / 7.2 m/s N/A   Overcast
7:15 PM 18.0 °C 16.0 °C 88% 1008.0 hPa 16.1 km NW 20.4 km/h / 5.7 m/s - N/A   Overcast
7:35 PM 17.0 °C 16.0 °C 94% 1008.0 hPa 16.1 km NW 20.4 km/h / 5.7 m/s - N/A   Overcast
7:55 PM 17.0 °C 16.0 °C 94% 1008.0 hPa 16.1 km NNW 18.5 km/h / 5.1 m/s 27.8 km/h / 7.7 m/s N/A   Overcast
8:15 PM 17.0 °C 16.0 °C 94% 1008.0 hPa 16.1 km NW 13.0 km/h / 3.6 m/s - N/A   Overcast
8:35 PM 17.0 °C 16.0 °C 94% 1008.4 hPa 16.1 km NW 16.7 km/h / 4.6 m/s - N/A   Overcast
8:55 PM 17.0 °C 15.0 °C 88% 1008.7 hPa 16.1 km NNW 16.7 km/h / 4.6 m/s 27.8 km/h / 7.7 m/s N/A   Overcast
9:15 PM 16.0 °C 15.0 °C 94% 1008.7 hPa 16.1 km NNW 11.1 km/h / 3.1 m/s - N/A   Overcast
9:35 PM 16.0 °C 15.0 °C 94% 1008.7 hPa 16.1 km NW 7.4 km/h / 2.1 m/s - N/A   Overcast
9:55 PM 16.0 °C 16.0 °C 100% 1009.0 hPa 16.1 km WNW 5.6 km/h / 1.5 m/s - N/A   Overcast
10:15 PM 16.0 °C 16.0 °C 100% 1009.0 hPa 16.1 km WNW 5.6 km/h / 1.5 m/s - N/A   Overcast
10:35 PM 16.0 °C 16.0 °C 100% 1009.4 hPa 16.1 km West 7.4 km/h / 2.1 m/s - N/A   Overcast
10:55 PM 16.0 °C 16.0 °C 100% 1009.4 hPa 11.3 km WNW 5.6 km/h / 1.5 m/s - N/A   Overcast
11:15 PM 16.0 °C 16.0 °C 100% 1009.4 hPa 16.1 km WNW 5.6 km/h / 1.5 m/s - N/A   Overcast
11:35 PM 16.0 °C 16.0 °C 100% 1009.4 hPa 16.1 km Calm Calm - N/A   Overcast
11:55 PM 16.0 °C 16.0 °C 100% 1009.4 hPa 11.3 km Calm Calm - N/A   Overcast